Temperature
4 5 5 4 4 4 4 4 5 5 6 6 5 4 5 5 4 4 3 3 3 2 2 2 2 2 2 2 2 2 2 2 2 2 2 2 2 2 2 2 2 2 2 2
3 4 5 4 4 4 4 4 4 5 5 5 5 5 5 4 4 3 3 2 2 2 2 2 2 2 2 2 2 1 1 1 1 1 1 1 1 1 1 1 1 1 2 2
3 4 4 4 4 4 4 4 4 4 4 4 3 3 4 4 4 3 2 2 2 1 1 1 1 1 1 1 1 1 1 1 1 1 0 0 0 0 1 1 1 1 1 1
2 3 3 5 4 4 4 4 4 3 3 3 3 4 4 4 3 3 2 2 2 1 1 1 1 1 1 0 0 0 0 0 0 0 0 0 0 0 0 0 0 1 1 1
2 3 4 5 4 3 3 3 3 3 3 3 3 3 3 3 3 2 2 2 1 1 1 1 0 0 -0 -0 -0 -0 -0 -0 -0 -0 -0 -0 -0 -0 0 -0 0 0 0 0
2 2 3 5 3 3 3 2 3 3 2 2 2 0 1 2 2 2 2 1 1 1 1 0 0 -0 -0 -1 -1 -1 -1 -1 -0 -0 -0 -0 -0 -0 -0 -0 -0 -0 -0 -0
1 2 3 3 2 3 3 3 3 3 2 2 1 1 2 2 1 1 1 1 1 0 0 -0 -0 -1 -1 -1 -1 -1 -1 -1 -1 -1 -1 -1 -1 -1 -1 -1 -1 -1 -1 -1
1 2 2 2 1 1 2 3 3 2 2 2 1 1 1 1 1 0 0 0 0 -0 -0 -0 -1 -1 -1 -1 -1 -1 -1 -1 -1 -1 -1 -1 -1 -1 -1 -1 -1 -1 -1 -1
2 2 2 2 2 2 2 2 2 2 1 1 1 0 0 -0 -0 -0 -0 -0 -1 -1 -1 -1 -1 -1 -1 -2 -2 -2 -2 -1 -1 -1 -1 -1 -1 -1 -2 -2 -2 -2 -2 -2
1 1 2 2 2 2 2 2 2 1 1 1 0 -0 -0 -1 -1 -1 -1 -1 -1 -1 -1 -1 -2 -2 -2 -2 -2 -2 -2 -2 -2 -1 -1 -2 -2 -2 -2 -2 -2 -2 -2 -2
-0 0 1 1 2 2 1 1 1 1 1 0 -0 -0 -1 -1 -1 -1 -1 -1 -2 -2 -2 -2 -2 -2 -2 -2 -2 -2 -2 -2 -2 -2 -2 -2 -2 -2 -2 -2 -2 -2 -2 -2
1 1 1 1 2 2 1 1 1 0 0 -0 -0 -1 -1 -1 -2 -2 -2 -2 -2 -2 -2 -2 -2 -2 -2 -3 -3 -3 -3 -2 -2 -2 -3 -3 -3 -3 -3 -3 -3 -3 -3 -3
2 2 2 2 1 1 1 1 0 0 -0 -0 -1 -1 -1 -1 -2 -2 -2 -2 -2 -3 -3 -3 -3 -3 -3 -3 -3 -3 -3 -3 -3 -3 -3 -3 -3 -3 -3 -3 -3 -3 -3 -3
2 1 1 1 1 1 1 0 0 -0 -0 -1 -1 -1 -1 -2 -2 -2 -2 -2 -3 -3 -3 -3 -3 -3 -3 -3 -3 -3 -3 -4 -4 -4 -4 -4 -4 -4 -4 -4 -4 -3 -3 -3
1 1 1 0 0 0 0 -0 -0 -1 -1 -1 -1 -2 -2 -2 -2 -2 -3 -3 -3 -3 -3 -3 -3 -3 -3 -3 -3 -4 -4 -4 -4 -4 -4 -4 -4 -4 -4 -4 -4 -4 -4 -4
1 0 0 -0 -0 -0 -0 -1 -1 -1 -1 -1 -2 -2 -2 -2 -3 -3 -3 -3 -3 -3 -3 -3 -4 -4 -4 -4 -4 -4 -4 -4 -4 -4 -4 -5 -4 -5 -5 -5 -4 -4 -4 -4
-0 -1 -1 -1 -1 -1 -1 -1 -1 -1 -1 -2 -2 -2 -3 -3 -3 -3 -3 -3 -3 -3 -4 -4 -4 -4 -4 -4 -4 -4 -4 -4 -5 -5 -5 -5 -5 -5 -5 -5 -5 -5 -5 -5
0 0 -0 -0 -1 -1 -1 -1 -1 -1 -2 -2 -2 -3 -3 -3 -3 -3 -3 -3 -3 -3 -4 -4 -4 -4 -4 -4 -4 -4 -4 -5 -5 -5 -5 -5 -5 -5 -5 -5 -5 -5 -5 -5
-0 -0 -0 -1 -1 -1 -1 -1 -1 -2 -2 -2 -3 -3 -3 -3 -3 -3 -4 -4 -4 -4 -4 -4 -4 -4 -4 -4 -5 -5 -5 -5 -5 -5 -5 -5 -6 -5 -5 -5 -5 -5 -5 -5
-0 -0 -1 -1 -1 -1 -2 -2 -2 -2 -2 -3 -3 -3 -3 -3 -4 -4 -4 -4 -4 -4 -4 -4 -4 -4 -4 -5 -5 -5 -5 -5 -5 -5 -5 -6 -6 -6 -6 -5 -5 -5 -5 -6
-0 -1 -1 -1 -1 -1 -2 -2 -2 -2 -3 -3 -3 -4 -4 -4 -4 -4 -4 -4 -4 -4 -5 -5 -5 -5 -5 -5 -5 -5 -5 -5 -6 -6 -6 -6 -6 -6 -6 -6 -6 -6 -6 -6
-1 -1 -1 -1 -2 -2 -2 -2 -2 -3 -3 -3 -4 -4 -4 -4 -4 -4 -5 -5 -4 -5 -5 -5 -5 -5 -6 -6 -5 -6 -6 -6 -6 -6 -6 -6 -6 -6 -6 -6 -6 -6 -6 -6
-1 -2 -2 -2 -2 -2 -2 -3 -3 -3 -3 -3 -4 -4 -4 -4 -5 -5 -5 -5 -5 -5 -5 -5 -5 -6 -6 -6 -6 -6 -6 -6 -6 -6 -7 -7 -7 -7 -7 -7 -7 -7 -7 -7
-2 -2 -2 -2 -3 -3 -3 -3 -3 -3 -4 -4 -4 -4 -4 -5 -5 -5 -5 -5 -5 -5 -5 -5 -6 -6 -6 -6 -6 -6 -6 -6 -7 -7 -7 -7 -7 -7 -7 -7 -7 -7 -7 -7
-3 -3 -3 -3 -3 -3 -3 -4 -4 -4 -4 -4 -4 -4 -5 -5 -5 -5 -5 -5 -6 -6 -6 -6 -6 -6 -6 -6 -6 -6 -6 -7 -7 -7 -7 -7 -7 -7 -7 -7 -7 -7 -7 -7
-3 -3 -3 -3 -3 -4 -4 -4 -4 -4 -4 -5 -5 -5 -5 -5 -5 -6 -6 -6 -6 -6 -6 -6 -6 -6 -6 -6 -6 -7 -7 -7 -7 -7 -7 -7 -7 -7 -7 -7 -7 -7 -7 -7
-3 -4 -4 -4 -4 -4 -4 -5 -5 -5 -5 -5 -5 -5 -5 -6 -6 -6 -6 -6 -6 -6 -6 -6 -6 -7 -7 -7 -7 -7 -7 -7 -7 -7 -7 -7 -7 -7 -8 -8 -8 -8 -8 -8
Wind_Speed
8 7 4 6 7 7 9 8 7 6 7 7 4 3 2 2 1 1 1 1 2 3 3 3 2 2 2 2 2 2 3 4 4 3 3 3 3 3 4 4 5 4 4 5
6 6 5 8 9 9 10 10 10 9 9 5 3 2 1 1 1 2 2 2 2 3 3 3 3 2 3 3 3 3 3 4 3 3 4 3 3 4 4 4 4 4 4 5
4 3 4 8 8 9 7 7 8 10 8 2 2 3 3 3 1 2 2 3 2 2 3 3 3 2 3 3 3 3 4 4 3 3 4 4 4 4 4 4 4 4 4 5
3 2 6 6 1 4 5 6 6 5 3 2 3 4 3 1 0 2 2 3 3 2 2 3 2 3 3 3 3 4 4 4 4 4 4 4 4 4 4 4 4 4 4 5
2 4 7 4 2 2 3 5 4 5 4 2 2 3 2 1 1 1 2 2 3 2 2 2 2 2 3 3 3 4 4 4 4 4 4 4 4 4 4 3 3 4 4 4
3 3 5 3 1 0 2 4 2 3 4 3 0 2 4 2 2 2 2 2 2 2 2 2 2 2 2 4 4 4 4 5 5 4 4 5 5 4 3 3 3 4 4 4
5 5 6 2 1 2 3 4 1 2 3 2 3 4 3 3 3 2 2 2 2 2 2 2 3 2 3 3 4 4 5 5 5 4 4 4 4 3 3 2 3 3 4 4
4 5 7 2 4 4 3 1 1 1 1 1 2 2 3 3 3 3 3 3 2 2 2 2 2 2 3 4 5 5 5 5 5 4 4 3 3 3 3 2 2 3 3 3
6 6 2 4 3 2 0 0 1 0 1 0 2 3 3 3 3 3 3 2 2 2 3 3 3 2 4 5 5 5 5 5 4 4 3 3 2 3 3 2 2 2 2 3
4 5 3 3 2 2 1 1 1 1 0 0 2 3 3 3 3 3 3 2 2 2 2 4 4 3 4 5 5 4 4 4 4 3 3 3 2 2 2 2 2 2 3 3
5 5 3 3 3 3 1 1 1 1 1 2 2 3 3 3 3 2 2 2 1 2 3 4 4 4 4 4 4 4 4 4 4 3 3 2 2 2 2 2 3 3 3 3
6 4 4 4 2 2 2 2 2 2 2 2 2 3 3 3 2 2 2 2 2 3 4 4 4 4 4 4 4 4 4 4 3 3 3 2 2 3 4 3 4 4 3 3
4 2 2 2 1 1 2 2 2 2 2 2 2 2 2 2 2 2 2 2 3 3 4 4 4 4 4 4 4 3 4 4 3 3 3 2 2 2 3 4 5 5 4 3
3 1 3 3 3 2 2 2 1 1 2 2 2 2 2 2 2 2 3 3 3 3 3 3 4 5 5 4 4 4 4 4 4 3 3 2 2 2 2 2 3 3 4 4
4 4 5 3 2 2 1 1 1 2 2 2 1 2 2 2 3 4 3 2 2 2 3 3 4 5 4 4 4 4 3 3 3 2 2 2 2 2 1 1 2 2 2 2
2 3 4 4 4 3 2 3 3 4 3 2 2 2 2 3 3 3 2 2 2 3 4 3 4 5 4 3 4 3 3 4 4 2 2 2 2 2 1 1 1 1 1 2
4 5 5 5 5 4 4 4 4 4 3 3 3 3 2 2 2 3 3 3 3 4 4 3 4 4 3 3 3 3 3 3 4 3 2 2 2 2 2 1 1 1 1 1
6 6 5 5 5 5 5 4 4 4 4 4 3 2 2 2 3 4 3 3 3 4 4 3 3 3 3 3 2 2 2 2 2 2 2 2 2 2 2 1 1 1 1 1
4 5 4 4 4 4 4 4 4 4 4 3 3 3 4 4 4 4 3 2 3 5 4 3 5 3 3 3 3 2 2 2 2 2 2 3 3 2 1 2 1 1 1 1
4 3 3 3 4 4 4 4 3 3 3 3 3 3 4 4 3 3 3 4 4 4 3 3 3 3 3 3 3 2 2 2 2 2 2 2 2 2 2 2 1 1 1 1
3 3 3 3 3 4 4 4 4 4 4 3 4 5 4 4 3 3 3 4 4 2 3 3 2 2 2 3 3 2 2 2 2 2 2 2 2 2 2 2 2 1 1 1
3 3 3 3 3 3 3 3 4 4 4 4 4 4 4 4 4 3 5 5 4 3 2 2 2 3 3 3 2 2 2 2 2 2 2 2 2 2 2 2 2 2 1 1
3 3 3 3 3 3 2 2 4 4 4 5 5 4 5 4 3 3 4 3 2 4 3 3 4 5 5 2 1 2 2 2 2 2 2 2 2 2 2 2 2 1 1 1
2 2 2 2 2 2 3 3 3 3 4 4 4 5 4 3 3 4 3 3 4 4 3 4 6 5 3 1 1 2 2 2 2 2 2 2 2 2 2 2 2 2 1 1
2 2 2 2 3 3 3 3 2 2 3 3 3 4 4 3 4 3 3 3 4 4 3 4 5 4 2 1 1 2 2 2 2 1 1 1 2 2 2 2 2 2 2 1
3 3 3 3 3 3 2 2 2 2 2 3 3 2 2 2 3 3 2 3 3 3 2 2 2 2 1 1 1 1 1 2 2 2 1 1 2 2 2 2 2 2 2 2
2 2 2 2 2 2 2 2 3 3 3 3 3 2 2 2 2 2 2 2 2 2 2 1 1 1 1 1 1 1 1 1 1 1 1 1 1 2 2 2 2 2 2 1
Wind_Direction
267 273 253 251 246 227 224 229 233 251 256 264 268 270 247 221 207 257 317 345 335 329 327 328 325 338 348 335 314 299 283 280 284 294 294 282 278 276 277 275 273 266 264 264
266 252 252 266 255 233 233 238 247 265 272 267 284 318 315 273 230 236 263 281 296 314 326 326 327 341 340 327 323 305 283 284 298 307 299 283 275 270 272 273 274 273 268 266
261 246 288 266 242 223 224 218 219 242 252 274 316 293 276 270 252 244 275 284 287 300 309 313 325 335 322 320 324 314 301 301 303 298 294 291 287 274 270 269 270 272 272 273
271 299 252 243 190 195 218 233 213 236 260 267 271 284 278 256 194 281 299 299 296 297 306 322 333 335 331 331 323 310 308 307 303 293 288 289 284 276 274 272 268 266 271 272
228 255 270 260 215 178 200 254 217 226 251 271 347 324 290 14 16 297 290 300 303 306 314 331 330 335 337 324 316 313 311 305 300 293 289 285 281 279 276 276 278 276 273 270
222 242 251 260 145 349 135 261 233 199 231 252 299 282 268 345 343 316 325 322 315 330 347 341 332 345 333 315 316 311 309 306 301 300 295 286 283 279 283 281 276 282 281 276
227 241 263 272 149 119 176 253 253 178 212 224 222 231 276 338 340 326 324 328 343 350 343 329 329 334 317 309 306 310 312 311 302 297 291 285 288 291 293 287 286 288 290 284
201 227 251 152 136 187 229 2 88 126 171 233 276 292 315 331 332 333 330 327 340 341 329 331 332 331 316 310 317 324 321 315 306 299 295 300 296 298 292 271 270 280 281 285
204 220 260 165 193 229 43 328 338 25 23 18 302 296 303 307 313 313 311 316 329 327 322 324 328 325 310 316 326 326 322 318 318 313 308 303 291 280 280 271 264 271 273 278
252 258 255 228 269 296 309 282 309 352 8 261 264 280 287 285 292 300 308 314 324 327 316 314 319 317 312 319 324 323 318 317 318 323 326 325 319 299 281 271 271 272 267 266
253 267 281 256 239 246 257 292 297 295 271 242 243 269 274 278 276 281 302 313 311 301 299 303 315 319 323 326 326 319 314 314 316 318 315 317 320 314 299 283 276 266 254 250
234 229 217 244 241 223 230 256 258 268 290 276 243 259 271 272 272 275 285 302 311 304 302 304 313 317 322 326 322 316 313 314 313 316 316 319 326 334 339 330 326 320 315 299
238 271 274 270 273 243 240 252 255 245 253 275 277 258 261 270 273 276 286 292 293 294 298 307 314 316 321 324 324 319 311 309 306 310 311 314 319 317 326 339 343 335 326 318
225 245 276 266 258 256 258 265 269 272 275 272 279 283 276 282 292 285 279 279 288 297 301 308 310 311 321 327 323 317 313 309 310 305 308 307 304 300 301 316 328 332 325 317
228 228 236 254 254 252 243 241 258 267 276 289 293 284 273 270 274 279 284 293 300 298 300 306 305 307 321 321 313 310 311 312 308 308 311 311 315 318 318 311 306 315 334 341
222 228 231 236 243 243 239 240 248 259 261 266 277 275 266 263 271 282 287 286 294 291 293 296 294 302 313 312 310 309 308 313 320 315 315 320 325 322 317 306 300 311 328 335
218 237 234 239 243 246 242 241 241 243 245 250 258 268 271 276 287 288 286 281 276 280 285 281 287 299 302 302 301 303 305 312 319 324 320 315 320 314 307 298 294 303 320 340
227 233 227 225 230 239 248 247 241 237 239 247 252 254 251 253 265 276 282 290 293 293 287 279 284 295 295 300 298 300 302 307 310 306 311 315 321 320 318 314 309 309 337 341
233 233 234 232 229 228 235 240 238 237 238 231 230 238 242 249 259 271 277 277 278 283 289 284 292 294 288 286 296 290 295 300 304 308 309 306 314 322 318 316 315 316 325 343
239 237 234 235 230 226 233 237 237 242 236 223 225 238 251 254 255 261 262 257 255 262 275 283 280 274 276 278 285 284 281 279 282 293 298 298 299 304 306 310 317 320 316 315
240 238 232 231 237 233 226 225 228 236 235 219 219 232 244 255 248 242 252 268 273 271 282 286 283 277 274 279 277 274 270 271 272 273 278 284 289 295 300 305 306 309 308 312
238 238 238 233 235 248 241 224 220 224 230 228 226 229 239 252 253 250 246 249 264 279 283 271 270 276 285 283 265 260 265 268 271 271 271 275 280 283 286 293 296 302 306 306
240 233 233 232 231 239 252 233 221 220 225 226 225 227 232 241 241 245 268 262 257 271 276 261 273 281 285 268 248 251 259 262 263 268 273 276 276 278 282 286 289 290 287 286
257 248 241 236 219 227 252 253 231 228 229 233 232 228 229 241 253 242 245 263 267 270 266 269 276 278 278 261 246 247 251 254 257 263 271 279 284 284 285 288 293 292 283 275
257 258 244 224 229 237 240 241 240 243 239 242 243 237 226 222 236 255 256 251 258 265 267 272 274 274 260 244 240 249 252 250 256 261 263 274 281 285 285 283 285 286 283 274
251 250 246 238 235 234 228 224 237 239 233 246 254 241 232 230 235 245 249 244 246 261 268 264 260 253 237 241 249 260 265 277 281 274 267 267 273 275 278 283 283 277 275 274
246 245 244 252 249 225 217 223 236 244 238 237 255 252 235 231 231 236 241 241 240 245 249 246 233 225 232 240 250 262 266 265 264 262 263 264 268 267 274 277 281 283 277 276
Height
1479 1476 1476 1477 1477 1478 1479 1476 1475 1467 1464 1462 1462 1462 1461 1461 1461 1461 1461 1460 1459 1458 1457 1456 1455 1454 1453 1453 1452 1452 1451 1450 1449 1448 1448 1448 1448 1448 1449 1449 1449 1449 1449 1449
1479 1474 1473 1473 1471 1472 1472 1472 1469 1466 1464 1460 1459 1459 1459 1460 1460 1459 1459 1458 1457 1456 1455 1453 1452 1451 1450 1449 1449 1448 1447 1446 1445 1444 1444 1444 1444 1444 1444 1444 1444 1444 1444 1444
1478 1474 1473 1471 1464 1465 1465 1463 1464 1464 1461 1458 1458 1458 1458 1458 1458 1457 1457 1456 1455 1453 1452 1451 1450 1448 1447 1446 1445 1444 1443 1442 1441 1441 1441 1440 1440 1440 1440 1439 1439 1439 1439 1439
1480 1477 1477 1461 1457 1457 1458 1457 1458 1458 1457 1457 1457 1456 1456 1456 1456 1455 1455 1454 1452 1451 1450 1449 1447 1446 1445 1443 1442 1441 1440 1439 1439 1438 1437 1437 1436 1436 1435 1435 1435 1434 1434 1434
1480 1477 1466 1457 1456 1457 1460 1457 1455 1456 1456 1456 1456 1455 1454 1454 1454 1453 1453 1451 1450 1449 1448 1446 1445 1444 1442 1441 1439 1438 1437 1437 1436 1435 1434 1434 1433 1432 1431 1431 1430 1430 1430 1430
1477 1475 1468 1456 1456 1454 1457 1458 1453 1453 1454 1454 1455 1458 1455 1452 1452 1451 1450 1449 1448 1446 1445 1444 1443 1442 1440 1438 1437 1435 1435 1434 1433 1432 1431 1430 1429 1428 1428 1427 1426 1426 1426 1426
1477 1474 1462 1456 1455 1455 1460 1455 1451 1451 1451 1452 1453 1454 1452 1451 1450 1449 1448 1447 1445 1444 1443 1442 1441 1439 1438 1436 1435 1433 1432 1431 1430 1428 1428 1427 1426 1425 1424 1423 1422 1422 1422 1422
1473 1472 1464 1455 1456 1457 1454 1450 1450 1450 1450 1450 1450 1450 1449 1448 1447 1446 1445 1444 1443 1441 1440 1440 1439 1437 1435 1434 1432 1431 1429 1428 1427 1425 1424 1423 1422 1421 1420 1419 1418 1418 1418 1418
1463 1460 1454 1452 1451 1451 1450 1450 1449 1449 1449 1449 1448 1448 1447 1446 1445 1444 1443 1442 1441 1440 1438 1437 1436 1435 1433 1431 1430 1428 1427 1425 1424 1423 1421 1420 1419 1418 1417 1416 1415 1415 1415 1414
1457 1452 1450 1450 1449 1449 1449 1449 1448 1448 1447 1447 1446 1445 1445 1444 1443 1442 1441 1440 1439 1438 1436 1435 1434 1433 1431 1429 1428 1426 1424 1423 1421 1420 1419 1418 1416 1416 1415 1413 1413 1412 1412 1411
1455 1451 1449 1447 1447 1447 1447 1447 1446 1446 1445 1445 1444 1443 1442 1441 1441 1440 1439 1438 1437 1436 1434 1433 1431 1430 1429 1427 1425 1423 1422 1420 1419 1418 1416 1415 1414 1413 1412 1412 1411 1410 1409 1409
1449 1445 1446 1444 1444 1444 1444 1444 1444 1443 1443 1442 1442 1441 1440 1439 1439 1438 1437 1436 1434 1433 1432 1431 1429 1427 1426 1425 1423 1421 1419 1418 1417 1415 1414 1413 1411 1410 1410 1409 1409 1408 1407 1407
1443 1442 1442 1441 1441 1441 1441 1441 1441 1441 1440 1439 1439 1439 1438 1437 1436 1435 1434 1433 1432 1431 1430 1428 1427 1425 1424 1423 1421 1420 1418 1416 1415 1414 1412 1411 1409 1408 1407 1406 1406 1405 1404 1404
1440 1440 1439 1439 1439 1439 1439 1438 1438 1438 1438 1437 1436 1436 1435 1434 1434 1433 1432 1431 1430 1428 1427 1426 1425 1423 1422 1421 1419 1418 1416 1415 1413 1412 1410 1409 1408 1407 1406 1404 1403 1402 1402 1401
1436 1437 1436 1436 1436 1436 1436 1435 1435 1435 1434 1434 1434 1433 1432 1431 1431 1430 1429 1428 1427 1426 1425 1423 1422 1421 1420 1419 1417 1416 1414 1413 1412 1410 1409 1407 1406 1405 1404 1402 1401 1400 1400 1399
1432 1432 1432 1432 1432 1432 1432 1432 1432 1431 1431 1431 1431 1430 1430 1429 1428 1427 1427 1426 1424 1423 1422 1421 1420 1419 1418 1417 1415 1414 1412 1411 1410 1408 1407 1405 1404 1403 1402 1401 1400 1399 1398 1397
1428 1428 1428 1428 1428 1428 1429 1429 1429 1428 1428 1428 1427 1427 1427 1426 1425 1424 1424 1423 1422 1421 1420 1419 1418 1417 1416 1414 1413 1411 1410 1409 1408 1406 1405 1404 1402 1401 1400 1399 1398 1397 1397 1397
1424 1424 1425 1425 1424 1425 1425 1425 1425 1425 1425 1425 1424 1424 1423 1422 1422 1421 1421 1421 1420 1419 1418 1417 1416 1415 1413 1412 1411 1410 1408 1407 1406 1405 1403 1402 1401 1400 1399 1398 1397 1396 1396 1395
1420 1420 1421 1421 1421 1422 1421 1422 1422 1421 1421 1421 1421 1420 1420 1420 1419 1419 1418 1418 1417 1416 1415 1415 1414 1412 1411 1410 1409 1408 1406 1405 1404 1403 1402 1401 1399 1398 1397 1396 1395 1395 1394 1394
1417 1417 1417 1417 1418 1418 1418 1418 1418 1418 1418 1418 1417 1417 1417 1417 1416 1416 1415 1414 1414 1413 1412 1412 1411 1410 1409 1408 1407 1405 1404 1403 1402 1401 1400 1398 1397 1396 1395 1394 1394 1393 1392 1392
1413 1413 1413 1414 1414 1414 1414 1414 1414 1414 1414 1414 1414 1414 1414 1413 1413 1413 1412 1411 1411 1410 1410 1409 1408 1407 1406 1405 1404 1403 1402 1401 1400 1399 1398 1396 1395 1394 1394 1393 1392 1391 1391 1390
1410 1410 1410 1410 1410 1411 1411 1411 1411 1411 1411 1410 1410 1410 1410 1410 1410 1409 1409 1408 1408 1407 1406 1405 1405 1404 1403 1402 1401 1400 1399 1398 1397 1397 1395 1394 1393 1392 1392 1391 1391 1390 1390 1389
1407 1407 1407 1407 1407 1407 1407 1408 1408 1407 1407 1407 1407 1407 1407 1406 1406 1406 1405 1405 1404 1404 1403 1402 1402 1401 1400 1399 1398 1397 1396 1396 1395 1394 1393 1393 1392 1391 1390 1390 1389 1389 1388 1388
1405 1405 1404 1404 1404 1404 1404 1404 1404 1404 1404 1404 1404 1404 1403 1403 1403 1402 1402 1402 1401 1400 1400 1399 1398 1398 1397 1396 1395 1394 1394 1393 1392 1392 1391 1391 1390 1390 1389 1388 1388 1387 1387 1387
1402 1402 1402 1401 1401 1401 1401 1401 1401 1401 1401 1400 1400 1400 1400 1400 1400 1399 1399 1398 1398 1397 1396 1396 1395 1395 1394 1393 1392 1392 1391 1391 1390 1390 1389 1389 1388 1388 1388 1387 1387 1386 1386 1385
1399 1399 1399 1398 1398 1398 1398 1397 1397 1397 1397 1397 1397 1397 1397 1397 1396 1396 1395 1395 1394 1394 1393 1393 1392 1392 1391 1391 1390 1390 1389 1389 1388 1388 1388 1387 1387 1387 1386 1386 1385 1385 1384 1384
1396 1395 1395 1395 1395 1395 1395 1394 1394 1394 1394 1394 1393 1393 1393 1393 1393 1392 1392 1392 1391 1391 1391 1390 1390 1390 1389 1389 1389 1388 1388 1387 1387 1387 1386 1386 1386 1385 1385 1385 1384 1384 1383 1383